sat.trackr.live / text

‹ back to catalog

STARLINK-2487

NORAD 48144 · 2021-027BE

PAYLOAD ACTIVE UNKNOWN

§ Identity

Operator
Country
US
Launch date
2021-04-07
Launch site
AFETR
Launch vehicle
Mass (kg)
RCS (m²)

Purposes: comms

External: N2YO · Heavens-Above · Gunter

§ Orbital elements

Epoch: 2026-05-24T10:53:45.232800Z

Period
94.01 min
Inclination
53.1595°
Eccentricity
0.0001182
Mean motion
15.31721320 rev/d
Perigee alt
469.9 km
Apogee alt
471.5 km
Semi-major
6,848.8 km
B*
1.5628e-4
RAAN
160.1204°
Arg perigee
84.0480°
Mean anomaly
276.0656°
Rev number
28,428

§ Raw data

STARLINK-24871 48144U 21027BE  26144.45399575  .00004491  00000+0  15628-3 0  99992 48144  53.1595 160.1204 0001182  84.0480 276.0656 15.31721320284282

JSON: /api/v1/satellites/48144 · /tle

For live sub-satellite position, see the globe view (requires WebGL).

§ Visibility from observer

Set your observer location to see the next 7 days of passes ≥ 10°. The values pass through the URL so the page stays shareable.

No JS? Fill the form by hand. The geolocation button needs JavaScript.